TimeMDT,TemperatureF,Dew PointF,Humidity,Sea Level PressureIn,VisibilityMPH,Wind Direction,Wind SpeedMPH,Gust SpeedMPH,PrecipitationIn,Events,Conditions,WindDirDegrees,DateUTC
12:53 AM,57.9,50.0,75,29.97,10.0,East,9.2,-,N/A,,Clear,80,2013-06-17 06:53:00
1:53 AM,57.0,51.1,81,29.96,10.0,East,5.8,-,N/A,,Clear,90,2013-06-17 07:53:00
2:53 AM,54.0,50.0,86,29.97,10.0,ENE,6.9,-,N/A,,Clear,70,2013-06-17 08:53:00
3:53 AM,54.0,51.1,90,29.97,10.0,ENE,9.2,-,N/A,,Clear,70,2013-06-17 09:53:00
4:53 AM,55.0,52.0,89,30.00,10.0,NNE,9.2,-,N/A,,Clear,20,2013-06-17 10:53:00
5:53 AM,55.0,51.1,86,30.03,10.0,ENE,5.8,-,N/A,,Clear,70,2013-06-17 11:53:00
6:53 AM,61.0,48.9,64,30.02,10.0,East,13.8,18.4,N/A,,Clear,90,2013-06-17 12:53:00
7:53 AM,64.0,46.9,54,30.04,10.0,East,12.7,-,N/A,,Clear,100,2013-06-17 13:53:00
8:53 AM,66.9,46.9,49,30.06,10.0,SE,13.8,19.6,N/A,,Clear,130,2013-06-17 14:53:00
9:53 AM,72.0,48.0,43,30.05,10.0,ESE,10.4,18.4,N/A,,Clear,120,2013-06-17 15:53:00
10:53 AM,75.0,46.9,37,30.03,10.0,SE,9.2,20.7,N/A,,Clear,140,2013-06-17 16:53:00
11:53 AM,78.1,46.0,32,30.01,10.0,SSE,10.4,20.7,N/A,,Clear,160,2013-06-17 17:53:00
12:53 PM,80.1,46.0,30,30.01,10.0,SSE,13.8,21.9,N/A,,Clear,160,2013-06-17 18:53:00
1:30 PM,82.4,46.4,28,30.12,10.0,SE,15.0,23.0,N/A,,Partly Cloudy,140,2013-06-17 19:30:00
1:53 PM,81.0,48.0,31,29.99,10.0,SSE,12.7,25.3,N/A,,Partly Cloudy,150,2013-06-17 19:53:00
2:53 PM,80.1,48.9,34,29.99,10.0,SE,15.0,24.2,N/A,,Partly Cloudy,140,2013-06-17 20:53:00
3:53 PM,81.0,48.9,33,29.95,10.0,SE,11.5,20.7,N/A,,Clear,130,2013-06-17 21:53:00
4:53 PM,80.1,48.0,32,29.92,10.0,ESE,11.5,21.9,N/A,,Clear,120,2013-06-17 22:53:00
5:53 PM,81.0,48.9,33,29.91,10.0,SE,18.4,-,N/A,,Clear,130,2013-06-17 23:53:00
6:53 PM,78.1,48.9,36,29.91,10.0,SE,13.8,23.0,N/A,,Clear,130,2013-06-18 00:53:00
7:53 PM,75.0,50.0,41,29.93,10.0,SE,12.7,23.0,N/A,,Clear,130,2013-06-18 01:53:00
8:39 PM,68.0,44.6,43,30.14,10.0,NNE,40.3,54.1,N/A,Thunderstorm,Mostly Cloudy,20,2013-06-18 02:39:00
8:53 PM,53.1,48.0,83,30.07,7.0,NNE,34.5,51.8,0.02,Rain-Thunderstorm,Light Thunderstorms and Rain,30,2013-06-18 02:53:00
9:53 PM,57.0,50.0,77,30.02,10.0,East,16.1,-,0.20,,Partly Cloudy,90,2013-06-18 03:53:00
10:21 PM,57.2,50.0,77,30.14,10.0,SE,13.8,-,N/A,,Clear,140,2013-06-18 04:21:00
10:53 PM,57.0,50.0,77,30.03,10.0,SSE,11.5,-,N/A,,Clear,150,2013-06-18 04:53:00
11:53 PM,55.9,50.0,80,30.03,10.0,SE,9.2,-,N/A,,Clear,140,2013-06-18 05:53:00